EFIV Weather Reports


Display with metric or nautical units.
time (UTC)temp
F
wind
direction
speed
MPH
gust
MPH
rain 1hr
in
rain 24hr
in
rain mn
in
humidity
%
barometer
mb
20260905024454 41 11 11.0 17.0 0.00 0.00 0.00 92 1001.2
20260905022453 41 9 11.0 16.0 0.00 0.00 0.00 90 1001.2
20260905020125 42 2 10.0 18.0 0.00 0.00 0.00 85 1001.3
20260905014454 42 1 9.0 16.0 0.00 0.00 0.00 79 1001.3
20260905012453 43 5 12.0 19.0 0.00 0.00 0.00 79 1001.3
20260905010455 43 8 10.0 15.0 0.00 0.00 0.00 79 1001.3
20260905004455 43 8 9.0 13.0 0.00 0.00 0.00 80 1001.4
20260905002456 43 13 11.0 15.0 0.00 0.00 0.00 81 1001.6
20260905000454 43 20 12.0 19.0 0.00 0.00 0.00 82 1001.7
20260904234454 44 29 14.0 20.0 0.00 0.00 0.00 81 1001.8
20260904232454 43 28 13.0 19.0 0.00 0.00 0.00 88 1001.9
20260904230124 43 27 13.0 17.0 0.00 0.00 0.00 94 1002.1
20260904224452 43 26 13.0 19.0 0.00 0.00 0.00 93 1002.2
20260904222454 43 17 13.0 19.0 0.00 0.00 0.00 94 1002.2
20260904220448 44 23 13.0 19.0 0.00 0.00 0.00 92 1002.3
20260904214454 44 23 14.0 21.0 0.00 0.00 0.00 88 1002.3
20260904212449 44 26 15.0 21.0 0.00 0.00 0.00 90 1002.5
20260904210451 44 28 13.0 18.0 0.00 0.00 0.00 91 1002.6
20260904204453 45 22 15.0 23.0 0.00 0.00 0.00 89 1002.6
20260904202454 45 20 11.0 16.0 0.00 0.00 0.00 86 1002.7
20260904200455 45 25 12.0 17.0 0.00 0.00 0.00 86 1002.8
20260904194452 46 30 14.0 21.0 0.00 0.00 0.00 85 1002.7
20260904192450 46 27 15.0 23.0 0.00 0.00 0.00 82 1002.6
20260904190452 47 27 15.0 24.0 0.00 0.00 0.00 79 1002.6
20260904182454 47 26 14.0 21.0 0.00 0.00 0.00 82 1002.7
20260904180450 48 21 14.0 19.0 0.00 0.00 0.00 80 1002.7
20260904174450 47 26 14.0 21.0 0.00 0.00 0.00 82 1002.7
20260904172451 47 21 15.0 21.0 0.00 0.00 0.00 87 1002.8
20260904170452 48 25 12.0 17.0 0.00 0.00 0.00 83 1002.7
20260904164452 48 35 14.0 20.0 0.00 0.00 0.00 81 1002.7
20260904162451 48 32 15.0 21.0 0.00 0.00 0.00 82 1002.7
20260904160453 48 34 13.0 18.0 0.00 0.00 0.00 85 1002.8
20260904154451 49 26 13.0 19.0 0.00 0.00 0.00 85 1002.6
20260904152122 48 27 16.0 23.0 0.00 0.00 0.00 89 1002.6
20260904150122 49 34 16.0 22.0 0.00 0.00 0.00 87 1002.6
20260904144454 50 40 15.0 23.0 0.00 0.00 0.00 81 1002.4
20260904142451 50 37 19.0 26.0 0.00 0.00 0.00 80 1002.4
20260904140452 51 36 14.0 21.0 0.00 0.00 0.00 80 1002.5
20260904134451 50 27 16.0 24.0 0.00 0.00 0.00 82 1002.4
20260904132449 50 33 17.0 23.0 0.00 0.00 0.00 82 1002.5
20260904130121 50 25 15.0 23.0 0.00 0.00 0.00 81 1002.4
20260904124452 50 30 15.0 21.0 0.00 0.00 0.00 83 1002.5
20260904122450 49 24 13.0 19.0 0.00 0.00 0.00 88 1002.5
20260904120451 50 23 15.0 20.0 0.00 0.00 0.00 86 1002.5
20260904114122 49 17 13.0 19.0 0.00 0.00 0.00 87 1002.6
20260904112450 50 24 15.0 22.0 0.00 0.00 0.00 83 1002.6
20260904110451 50 18 13.0 21.0 0.00 0.00 0.00 83 1002.5
20260904104450 50 26 15.0 21.0 0.00 0.00 0.00 83 1002.5
20260904102449 51 22 13.0 19.0 0.00 0.00 0.00 85 1002.5
20260904100450 51 26 13.0 18.0 0.00 0.00 0.00 83 1002.4
20260904094450 51 21 14.0 21.0 0.00 0.00 0.00 84 1002.5
20260904092451 50 22 14.0 24.0 0.00 0.00 0.00 88 1002.4
20260904090122 50 19 11.0 16.0 0.00 0.00 0.00 91 1002.4
20260904084121 50 21 13.0 18.0 0.00 0.00 0.00 91 1002.5
20260904082450 50 21 13.0 20.0 0.00 0.00 0.00 92 1002.3
20260904080449 50 19 12.0 18.0 0.00 0.00 0.00 96 1002.3
20260904074452 49 18 10.0 16.0 0.00 0.00 0.00 96 1002.2
20260904072450 49 19 9.0 15.0 0.00 0.00 0.00 97 1002.2
20260904070448 49 12 8.0 13.0 0.00 0.00 0.00 96 1002.3
20260904064450 49 2 9.0 15.0 0.00 0.00 0.00 96 1002.3
20260904062449 49 360 8.0 11.0 0.00 0.00 0.00 97 1002.3
20260904060451 49 6 8.0 12.0 0.00 0.00 0.00 96 1002.4
20260904054449 49 9 9.0 13.0 0.00 0.00 0.00 97 1002.4
20260904052448 49 7 9.0 12.0 0.00 0.00 0.00 96 1002.4
20260904050449 49 8 8.0 13.0 0.00 0.00 0.00 95 1002.4
20260904044449 49 15 9.0 14.0 0.00 0.00 0.00 95 1002.4
20260904042448 49 8 6.0 11.0 0.00 0.00 0.00 95 1002.4
20260904040449 49 8 6.0 11.0 0.00 0.00 0.00 93 1002.4
20260904034449 49 5 7.0 13.0 0.00 0.00 0.00 94 1002.4
20260904032450 49 8 7.0 12.0 0.00 0.00 0.00 94 1002.3
20260904030451 49 5 7.0 13.0 0.00 0.00 0.00 94 1002.4